CW5439 Weather Reports


Display with metric or nautical units.
time (UTC)temp
F
wind
direction
speed
MPH
gust
MPH
rain 1hr
in
rain 24hr
in
rain mn
in
humidity
%
barometer
mb
20260904223705 54 216 6.0 16.0 0.00 0.03 0.03 90 1007.5
20260904223205 54 207 7.0 16.0 0.00 0.03 0.03 90 1007.6
20260904222205 54 281 5.0 15.0 0.00 0.03 0.03 90 1007.6
20260904221705 54 258 5.0 15.0 0.00 0.03 0.03 90 1007.4
20260904221207 54 271 5.0 14.0 0.00 0.03 0.03 90 1007.4
20260904220705 54 215 6.0 18.0 0.00 0.03 0.03 90 1007.4
20260904220205 54 220 5.0 18.0 0.00 0.03 0.03 90 1007.4
20260904215705 54 226 5.0 18.0 0.00 0.03 0.03 90 1007.4
20260904215205 54 236 5.0 14.0 0.00 0.03 0.03 90 1007.4
20260904214705 54 238 5.0 14.0 0.00 0.03 0.03 90 1007.4
20260904214206 54 260 5.0 14.0 0.00 0.03 0.03 89 1007.3
20260904213705 54 261 5.0 14.0 0.00 0.03 0.03 89 1007.2
20260904213207 54 255 4.0 12.0 0.00 0.03 0.03 89 1007.2
20260904212705 54 223 4.0 12.0 0.00 0.03 0.03 89 1007.2
20260904212204 54 201 4.0 12.0 0.00 0.04 0.03 89 1007.0
20260904211705 54 258 4.0 12.0 0.00 0.04 0.03 88 1007.2
20260904211205 54 245 5.0 13.0 0.00 0.04 0.03 88 1007.0
20260904210705 54 265 6.0 13.0 0.00 0.04 0.03 88 1006.9
20260904210205 54 208 5.0 13.0 0.00 0.04 0.03 88 1006.7
20260904205205 54 252 5.0 16.0 0.00 0.04 0.03 87 1006.5
20260904204704 54 248 6.0 16.0 0.00 0.04 0.03 88 1006.5
20260904204205 54 275 6.0 14.0 0.00 0.04 0.03 87 1006.5
20260904203705 54 274 5.0 14.0 0.00 0.04 0.03 87 1006.6
20260904203205 54 270 5.0 14.0 0.00 0.04 0.03 87 1006.5
20260904202705 54 216 5.0 15.0 0.00 0.04 0.03 86 1006.5
20260904202205 55 208 5.0 15.0 0.00 0.04 0.03 86 1006.5
20260904201705 55 197 5.0 16.0 0.00 0.04 0.03 86 1006.6
20260904201232 55 217 6.0 16.0 0.00 0.04 0.03 86 1006.5
20260904200705 55 199 6.0 20.0 0.00 0.04 0.03 86 1006.6
20260904200205 55 273 6.0 20.0 0.00 0.04 0.03 85 1006.6
20260904195705 55 244 5.0 20.0 0.00 0.04 0.03 85 1006.5
20260904194705 55 200 4.0 11.0 0.00 0.04 0.03 84 1006.5
20260904194205 55 208 4.0 11.0 0.00 0.04 0.03 83 1006.5
20260904193705 55 254 4.0 16.0 0.00 0.04 0.03 82 1006.4
20260904193205 55 244 5.0 16.0 0.00 0.04 0.03 82 1006.4
20260904192705 55 253 5.0 16.0 0.00 0.04 0.03 82 1006.4
20260904191705 56 229 5.0 15.0 0.00 0.04 0.03 81 1006.3
20260904190724 56 304 5.0 14.0 0.00 0.04 0.03 80 1006.1
20260904190205 56 277 5.0 12.0 0.00 0.04 0.03 80 1006.1
20260904185705 56 225 5.0 12.0 0.00 0.04 0.03 79 1005.9
20260904185205 57 227 5.0 12.0 0.00 0.04 0.03 79 1005.8
20260904184705 57 247 4.0 15.0 0.00 0.04 0.03 79 1005.7
20260904184205 57 206 5.0 15.0 0.00 0.04 0.03 78 1005.8
20260904183705 57 233 6.0 21.0 0.00 0.04 0.03 78 1005.8
20260904182705 58 284 7.0 21.0 0.00 0.04 0.03 78 1005.7
20260904182205 58 201 8.0 20.0 0.00 0.04 0.03 78 1005.6
20260904181205 58 221 8.0 15.0 0.00 0.04 0.03 78 1005.4
20260904180707 58 262 6.0 16.0 0.00 0.04 0.03 78 1005.3
20260904180205 58 255 7.0 16.0 0.00 0.04 0.03 77 1005.3
20260904175705 58 256 7.0 20.0 0.00 0.04 0.03 77 1005.1
20260904175222 58 250 7.0 20.0 0.00 0.04 0.03 77 1005.1
20260904174205 59 267 7.0 16.0 0.00 0.04 0.03 76 1005.1
20260904173708 59 297 7.0 16.0 0.00 0.04 0.03 76 1005.1
20260904173204 59 209 6.0 16.0 0.00 0.04 0.03 77 1005.0
20260904172705 59 258 6.0 14.0 0.00 0.04 0.03 77 1004.8
20260904172205 59 217 7.0 16.0 0.00 0.04 0.03 77 1004.9
20260904171705 59 286 7.0 16.0 0.00 0.04 0.03 76 1004.9
20260904171226 59 271 7.0 25.0 0.00 0.04 0.03 76 1004.9
20260904170705 59 264 7.0 25.0 0.00 0.04 0.03 76 1004.8
20260904170205 60 304 7.0 25.0 0.00 0.04 0.03 76 1004.7
20260904165705 60 289 8.0 18.0 0.00 0.04 0.03 75 1004.6
20260904165205 60 270 8.0 18.0 0.00 0.04 0.03 75 1004.5
20260904164205 60 234 9.0 20.0 0.00 0.04 0.03 75 1004.2
20260904163705 60 250 7.0 20.0 0.00 0.05 0.03 74 1004.1
20260904163205 60 264 8.0 20.0 0.00 0.05 0.03 75 1004.0
20260904162705 60 292 9.0 20.0 0.00 0.06 0.03 74 1003.9
20260904162205 60 237 9.0 27.0 0.00 0.06 0.03 74 1004.0
20260904161705 60 266 10.0 27.0 0.00 0.07 0.03 74 1003.9
20260904161205 60 252 11.0 27.0 0.00 0.07 0.03 73 1003.8
20260904160705 61 253 11.0 24.0 0.00 0.08 0.03 72 1003.7
20260904160205 61 262 12.0 28.0 0.00 0.08 0.03 73 1003.5
20260904155703 61 279 12.0 28.0 0.00 0.08 0.03 73 1003.5
20260904155205 61 263 11.0 24.0 0.00 0.08 0.03 74 1003.4
20260904154705 61 209 11.0 24.0 0.00 0.08 0.03 74 1003.3
20260904154205 60 283 10.0 23.0 0.00 0.08 0.03 75 1003.2
20260904153205 60 259 10.0 22.0 0.00 0.08 0.03 75 1003.1
20260904152705 60 280 10.0 22.0 0.00 0.08 0.03 75 1003.2
20260904152205 60 280 10.0 25.0 0.00 0.08 0.03 75 1003.2
20260904151704 60 230 11.0 25.0 0.00 0.08 0.03 75 1003.2
20260904151205 60 245 10.0 25.0 0.00 0.08 0.03 74 1003.1
20260904150705 60 252 10.0 20.0 0.00 0.08 0.03 75 1003.2
20260904150205 60 265 10.0 30.0 0.00 0.08 0.03 74 1003.2
20260904145705 60 257 11.0 30.0 0.00 0.08 0.03 74 1003.1
20260904145205 60 255 12.0 34.0 0.00 0.08 0.03 74 1003.1
20260904144704 60 271 13.0 34.0 0.00 0.08 0.03 75 1002.8
20260904144205 60 246 13.0 34.0 0.00 0.08 0.03 75 1002.9
20260904143705 60 265 13.0 27.0 0.00 0.08 0.03 75 1003.0
20260904143204 60 281 13.0 27.0 0.00 0.08 0.03 75 1003.0
20260904142726 60 315 11.0 26.0 0.00 0.08 0.03 77 1002.9
20260904142206 60 287 9.0 24.0 0.00 0.08 0.03 77 1002.8
20260904141705 60 221 9.0 22.0 0.00 0.08 0.03 78 1002.8
20260904141205 60 216 10.0 22.0 0.00 0.08 0.03 77 1002.7
20260904140705 60 298 10.0 32.0 0.00 0.08 0.03 76 1002.7
20260904140205 60 269 11.0 32.0 0.00 0.08 0.03 76 1002.7
20260904135705 61 226 12.0 32.0 0.00 0.08 0.03 74 1002.5
20260904135209 61 246 11.0 26.0 0.00 0.08 0.03 76 1002.3
20260904134725 60 230 11.0 28.0 0.00 0.08 0.03 74 1002.3
20260904134208 61 267 10.0 28.0 0.00 0.08 0.03 74 1002.2
20260904133704 61 271 11.0 25.0 0.00 0.08 0.03 74 1002.2
20260904133205 61 231 11.0 19.0 0.00 0.08 0.03 75 1002.1
20260904132705 60 231 10.0 23.0 0.00 0.08 0.03 75 1002.1
20260904132205 61 292 9.0 23.0 0.00 0.08 0.03 75 1002.0
20260904131704 61 317 10.0 23.0 0.00 0.08 0.03 75 1002.1
20260904131205 61 231 10.0 24.0 0.00 0.08 0.03 75 1002.1
20260904130205 61 292 10.0 28.0 0.00 0.08 0.03 76 1002.0
20260904125705 61 269 11.0 28.0 0.00 0.08 0.03 77 1001.9
20260904125207 61 296 12.0 27.0 0.00 0.08 0.03 77 1001.9
20260904124706 60 259 10.0 23.0 0.00 0.08 0.03 78 1001.9
20260904124205 60 266 9.0 26.0 0.00 0.08 0.03 80 1001.8
20260904123704 59 253 10.0 26.0 0.00 0.08 0.03 79 1001.8
20260904123205 59 248 10.0 26.0 0.00 0.08 0.03 80 1001.7
20260904122705 59 293 8.0 17.0 0.00 0.08 0.03 80 1001.5
20260904122205 60 30 7.0 20.0 0.00 0.08 0.03 79 1001.5
20260904121705 60 237 8.0 21.0 0.00 0.08 0.03 77 1001.4
20260904121205 61 271 10.0 23.0 0.00 0.08 0.03 75 1001.6
20260904120705 62 229 10.0 29.0 0.00 0.08 0.03 74 1001.4
20260904120205 62 271 12.0 29.0 0.00 0.08 0.03 74 1001.1
20260904115205 63 282 10.0 24.0 0.01 0.08 0.03 74 1000.9
20260904113705 62 252 10.0 20.0 0.01 0.08 0.03 77 1000.6
20260904113206 62 259 9.0 21.0 0.01 0.08 0.03 81 1000.4
20260904112705 60 226 9.0 21.0 0.01 0.08 0.03 83 1000.4
20260904112205 60 262 9.0 21.0 0.01 0.08 0.03 88 1000.2
20260904111705 59 196 8.0 24.0 0.01 0.08 0.03 89 1000.3
20260904111205 59 217 8.0 24.0 0.01 0.08 0.03 91 1000.2
20260904110705 58 294 8.0 19.0 0.01 0.08 0.03 89 1000.1
20260904110205 58 221 7.0 19.0 0.01 0.08 0.03 88 1000.1
20260904105705 59 258 8.0 21.0 0.00 0.07 0.02 87 1000.1
20260904105206 59 193 8.0 24.0 0.00 0.07 0.02 87 999.9
20260904104705 60 238 9.0 24.0 0.00 0.07 0.02 88 999.8
20260904104205 59 244 10.0 24.0 0.00 0.07 0.02 89 999.8
20260904103705 59 263 10.0 21.0 0.00 0.07 0.02 88 999.8
20260904103205 59 215 9.0 25.0 0.00 0.07 0.02 89 999.8
20260904102705 59 190 10.0 28.0 0.00 0.07 0.02 90 999.8
20260904102206 59 182 11.0 28.0 0.00 0.07 0.02 91 999.8
20260904101704 58 200 10.0 24.0 0.00 0.07 0.02 91 999.7
20260904101205 57 223 10.0 25.0 0.00 0.07 0.02 92 999.6
20260904100704 57 267 11.0 25.0 0.00 0.07 0.02 92 999.5
20260904100205 57 252 10.0 25.0 0.00 0.07 0.02 91 999.5
20260904095705 57 206 10.0 23.0 0.00 0.07 0.02 91 999.5
20260904095205 57 196 10.0 23.0 0.00 0.07 0.02 91 999.5
20260904094705 57 261 10.0 27.0 0.00 0.07 0.02 92 999.4
20260904094205 57 205 11.0 27.0 0.00 0.07 0.02 92 999.4
20260904093705 56 211 11.0 27.0 0.00 0.07 0.02 92 999.3
20260904093205 56 157 9.0 29.0 0.00 0.07 0.02 92 999.4
20260904092705 56 264 11.0 29.0 0.00 0.07 0.02 92 999.4
20260904092205 56 236 10.0 29.0 0.00 0.07 0.02 92 999.4
20260904091706 56 219 9.0 25.0 0.00 0.07 0.02 92 999.3
20260904091205 56 249 9.0 25.0 0.00 0.07 0.02 92 999.4
20260904090705 56 282 8.0 25.0 0.00 0.07 0.02 92 999.4
20260904090205 56 199 8.0 26.0 0.00 0.07 0.02 92 999.4
20260904085211 56 202 9.0 26.0 0.00 0.07 0.02 92 999.3
20260904084705 56 254 8.0 23.0 0.00 0.07 0.02 92 999.4
20260904083708 56 302 7.0 18.0 0.00 0.07 0.02 91 999.5
20260904083205 56 221 7.0 19.0 0.00 0.07 0.02 91 999.5
20260904082206 56 177 9.0 26.0 0.00 0.07 0.02 92 999.5
20260904080705 56 240 10.0 24.0 0.00 0.07 0.02 93 999.4
20260904075705 56 210 9.0 21.0 0.00 0.07 0.02 93 999.4
20260904075205 55 205 8.0 21.0 0.00 0.07 0.02 94 999.4
20260904074705 55 210 7.0 19.0 0.00 0.07 0.02 94 999.4
20260904074205 55 231 7.0 21.0 0.00 0.07 0.02 94 999.4
20260904073705 55 274 7.0 21.0 0.00 0.07 0.02 94 999.4
20260904073207 55 255 6.0 21.0 0.00 0.07 0.02 94 999.5
20260904072205 55 257 7.0 19.0 0.00 0.07 0.02 94 999.5
20260904071705 55 260 7.0 19.0 0.00 0.07 0.02 94 999.5
20260904071205 55 269 8.0 19.0 0.00 0.07 0.02 94 999.5
20260904070206 55 239 8.0 19.0 0.00 0.07 0.02 95 999.4
20260904065705 54 236 9.0 19.0 0.00 0.07 0.02 95 999.4
20260904065206 54 218 9.0 19.0 0.00 0.07 0.02 95 999.4
20260904064705 54 189 7.0 21.0 0.00 0.07 0.02 95 999.5
20260904064205 54 223 8.0 21.0 0.00 0.07 0.02 95 999.6
20260904062705 54 229 9.0 20.0 0.00 0.07 0.02 95 999.5
20260904062206 53 242 8.0 20.0 0.00 0.07 0.02 95 999.7
20260904061704 53 227 6.0 18.0 0.00 0.07 0.02 95 999.7
20260904060704 53 292 6.0 16.0 0.00 0.07 0.02 95 999.8
20260904060205 53 205 6.0 14.0 0.00 0.07 0.02 95 999.8
20260904055705 53 271 6.0 14.0 0.00 0.07 0.02 95 999.7
20260904055206 53 213 5.0 14.0 0.00 0.07 0.02 95 999.7
20260904054709 53 232 4.0 11.0 0.00 0.07 0.02 94 999.8
20260904054205 53 268 3.0 10.0 0.00 0.07 0.02 94 999.8
20260904053705 53 264 3.0 10.0 0.00 0.07 0.02 94 999.9
20260904053205 52 288 3.0 11.0 0.00 0.07 0.02 94 1000.0
20260904052705 52 248 3.0 11.0 0.00 0.07 0.02 94 1000.0
20260904052206 52 220 4.0 11.0 0.00 0.07 0.02 94 999.8
20260904051205 53 225 3.0 10.0 0.00 0.07 0.02 94 999.7
20260904050705 53 240 2.0 10.0 0.00 0.07 0.02 94 999.9
20260904050205 53 250 3.0 10.0 0.00 0.07 0.02 94 999.7
20260904045704 53 221 4.0 10.0 0.00 0.07 0.02 94 999.7
20260904045205 53 266 3.0 11.0 0.00 0.07 0.02 94 999.7
20260904044705 54 238 3.0 12.0 0.00 0.07 0.02 94 999.8
20260904044205 54 273 4.0 12.0 0.00 0.07 0.02 94 999.7
20260904043705 54 222 4.0 12.0 0.01 0.07 0.02 94 999.9
20260904043208 54 216 2.0 6.0 0.01 0.07 0.02 94 1000.2
20260904042705 54 207 1.0 5.0 0.02 0.07 0.02 94 999.8
20260904042205 54 254 1.0 6.0 0.02 0.07 0.02 94 1000.3
20260904041705 54 248 1.0 6.0 0.02 0.07 0.02 94 1000.6
20260904041205 54 221 1.0 6.0 0.02 0.07 0.02 94 1000.6
20260904040705 54 249 2.0 7.0 0.02 0.07 0.02 93 1000.5
20260904040205 54 229 2.0 8.0 0.02 0.07 0.02 94 1000.5
20260904035705 54 271 3.0 8.0 0.02 0.07 0.02 94 1000.6
20260904035205 54 257 3.0 8.0 0.02 0.07 0.02 93 1000.4
20260904034707 54 248 3.0 12.0 0.02 0.07 0.02 93 1000.5
20260904034205 54 190 4.0 20.0 0.01 0.06 0.02 93 1000.5
20260904033705 55 308 7.0 20.0 0.01 0.06 0.02 93 1000.5
20260904033204 55 242 7.0 20.0 0.00 0.06 0.01 93 1000.5
20260904032705 56 278 5.0 17.0 0.00 0.06 0.01 94 1000.4
20260904032207 56 246 6.0 17.0 0.00 0.06 0.01 94 1000.3
20260904031705 56 239 7.0 17.0 0.00 0.06 0.01 94 1000.4
20260904031205 56 229 7.0 15.0 0.00 0.06 0.01 94 1000.4
20260904030705 56 240 7.0 15.0 0.00 0.06 0.01 94 1000.5
20260904030205 56 205 7.0 14.0 0.00 0.06 0.01 94 1000.5
20260904025705 56 233 5.0 9.0 0.00 0.06 0.01 94 1000.6
20260904025205 56 179 3.0 13.0 0.00 0.06 0.01 94 1000.7
20260904024705 56 218 3.0 13.0 0.00 0.06 0.01 94 1000.7
20260904024205 56 214 4.0 13.0 0.00 0.06 0.01 94 1000.7
20260904023705 56 206 4.0 14.0 0.00 0.06 0.01 94 1000.7
20260904023205 56 197 5.0 14.0 0.00 0.06 0.01 94 1000.7
20260904022708 56 257 4.0 11.0 0.00 0.06 0.01 94 1000.9
20260904022206 56 202 4.0 11.0 0.00 0.06 0.01 94 1001.0
20260904021707 56 219 4.0 11.0 0.00 0.06 0.01 94 1001.0
20260904021205 56 218 4.0 10.0 0.00 0.06 0.01 94 1001.0
20260904020705 56 242 3.0 9.0 0.00 0.06 0.01 94 1000.9
20260904020205 56 211 1.0 11.0 0.00 0.06 0.01 94 1000.9
20260904015705 56 252 2.0 11.0 0.00 0.06 0.01 94 1001.0
20260904015207 56 284 3.0 11.0 0.00 0.06 0.01 94 1001.2
20260904014705 56 281 2.0 13.0 0.00 0.06 0.01 94 1001.3
20260904014205 56 261 3.0 13.0 0.00 0.06 0.01 94 1001.2
20260904013705 56 224 4.0 13.0 0.00 0.06 0.01 94 1001.2
20260904013204 57 252 5.0 11.0 0.00 0.06 0.01 94 1001.2
20260904012704 57 234 4.0 11.0 0.00 0.06 0.01 94 1001.3
20260904012205 57 174 4.0 12.0 0.00 0.06 0.01 94 1001.6
20260904011705 57 215 4.0 12.0 0.00 0.06 0.01 94 1001.6
20260904011205 57 223 5.0 12.0 0.00 0.06 0.01 94 1001.6
20260904010705 57 269 4.0 16.0 0.00 0.06 0.01 94 1001.6
20260904010205 57 221 4.0 16.0 0.00 0.06 0.01 94 1001.8
20260904005705 57 214 5.0 16.0 0.00 0.06 0.01 94 1001.9
20260904005205 57 215 4.0 12.0 0.00 0.06 0.01 94 1002.0
20260904004705 57 193 4.0 12.0 0.00 0.06 0.01 94 1002.0
20260904003705 57 244 5.0 13.0 0.00 0.06 0.01 94 1002.1
20260904003205 57 244 5.0 13.0 0.00 0.06 0.01 94 1002.3
20260904002205 57 177 5.0 13.0 0.00 0.06 0.01 94 1002.3
20260904001704 57 205 5.0 19.0 0.01 0.06 0.01 94 1002.5
20260904001205 57 242 6.0 19.0 0.01 0.06 0.01 94 1002.5
20260904000705 57 232 7.0 19.0 0.01 0.06 0.01 94 1002.6
20260904000205 57 261 7.0 18.0 0.01 0.06 0.01 94 1002.5
20260903235705 57 217 7.0 18.0 0.01 0.06 0.01 94 1002.6
20260903234705 57 273 4.0 19.0 0.01 0.06 0.01 94 1002.5
20260903233708 57 219 6.0 14.0 0.01 0.06 0.01 94 1002.8
20260903233205 57 236 7.0 14.0 0.01 0.07 0.01 94 1002.9
20260903232706 57 233 6.0 14.0 0.01 0.07 0.01 94 1003.1
20260903232206 57 225 6.0 14.0 0.00 0.06 0.00 94 1003.2
20260903231205 57 210 6.0 14.0 0.00 0.06 0.00 94 1003.0
20260903230705 57 210 5.0 14.0 0.00 0.06 0.00 94 1003.1
20260903230204 57 220 7.0 14.0 0.00 0.06 0.06 94 1003.3
20260903225709 56 214 6.0 14.0 0.00 0.07 0.06 94 1003.4
20260903225205 56 219 6.0 16.0 0.00 0.07 0.06 94 1003.5
20260903224705 56 206 7.0 16.0 0.00 0.07 0.06 94 1003.5
20260903224205 56 186 7.0 16.0 0.00 0.07 0.06 94 1003.4